TimeCST,TemperatureF,Dew PointF,Humidity,Sea Level PressureIn,VisibilityMPH,Wind Direction,Wind SpeedMPH,Gust SpeedMPH,PrecipitationIn,Events,Conditions,WindDirDegrees,DateUTC
12:53 AM,39.9,30.0,68,30.03,10.0,SW,3.5,-,N/A,,Clear,220,2013-02-15 06:53:00
1:53 AM,37.0,30.0,76,30.03,10.0,SW,3.5,-,N/A,,Clear,230,2013-02-15 07:53:00
2:53 AM,36.0,30.0,79,30.03,10.0,SW,3.5,-,N/A,,Clear,230,2013-02-15 08:53:00
3:53 AM,37.0,30.0,76,30.02,10.0,SW,3.5,-,N/A,,Clear,220,2013-02-15 09:53:00
4:53 AM,36.0,30.0,79,30.04,10.0,SSW,3.5,-,N/A,,Clear,210,2013-02-15 10:53:00
5:53 AM,35.1,28.9,78,30.06,10.0,Calm,Calm,-,N/A,,Clear,0,2013-02-15 11:53:00
6:53 AM,35.1,30.0,82,30.06,10.0,Calm,Calm,-,N/A,,Clear,0,2013-02-15 12:53:00
7:53 AM,39.9,32.0,73,30.06,10.0,South,3.5,-,N/A,,Clear,180,2013-02-15 13:53:00
8:53 AM,44.1,35.1,71,30.07,10.0,West,10.4,-,N/A,,Mostly Cloudy,260,2013-02-15 14:53:00
9:53 AM,45.0,36.0,71,30.08,10.0,West,10.4,-,N/A,,Overcast,270,2013-02-15 15:53:00
10:21 AM,44.6,35.6,71,30.07,10.0,West,9.2,-,N/A,,Overcast,270,2013-02-15 16:21:00
10:46 AM,44.6,35.6,71,30.08,10.0,West,8.1,-,N/A,,Overcast,270,2013-02-15 16:46:00
10:53 AM,44.1,35.1,71,30.09,10.0,West,8.1,-,N/A,,Overcast,270,2013-02-15 16:53:00
11:31 AM,42.8,37.4,81,30.07,10.0,West,9.2,-,0.01,,Overcast,260,2013-02-15 17:31:00
11:53 AM,43.0,37.0,80,30.08,10.0,West,9.2,18.4,0.01,,Overcast,280,2013-02-15 17:53:00
12:11 PM,42.8,35.6,76,30.07,10.0,WNW,10.4,19.6,0.01,,Overcast,290,2013-02-15 18:11:00
12:53 PM,42.1,35.1,76,30.07,10.0,West,10.4,-,0.01,,Overcast,280,2013-02-15 18:53:00
1:09 PM,42.8,33.8,70,30.05,10.0,West,10.4,17.3,N/A,,Overcast,270,2013-02-15 19:09:00
1:17 PM,42.8,35.6,76,30.05,10.0,West,10.4,-,N/A,,Overcast,280,2013-02-15 19:17:00
1:53 PM,42.1,35.1,76,30.07,10.0,West,6.9,-,0.00,,Overcast,280,2013-02-15 19:53:00
2:38 PM,42.8,33.8,70,30.04,10.0,Variable,6.9,-,N/A,,Overcast,0,2013-02-15 20:38:00
2:46 PM,42.8,33.8,70,30.05,10.0,WNW,6.9,-,N/A,,Overcast,290,2013-02-15 20:46:00
2:53 PM,42.1,34.0,73,30.07,10.0,WNW,6.9,-,N/A,,Overcast,290,2013-02-15 20:53:00
3:00 PM,42.8,33.8,70,30.05,10.0,WNW,5.8,-,N/A,,Overcast,290,2013-02-15 21:00:00
3:53 PM,39.0,32.0,76,30.09,10.0,NNW,11.5,21.9,0.00,Rain,Light Rain,330,2013-02-15 21:53:00
4:44 PM,39.2,28.4,65,30.07,10.0,NNW,8.1,-,0.00,,Overcast,330,2013-02-15 22:44:00
4:53 PM,39.0,28.9,67,30.09,10.0,NNW,6.9,-,0.00,,Overcast,340,2013-02-15 22:53:00
5:53 PM,37.0,25.0,62,30.11,10.0,Calm,Calm,-,N/A,,Mostly Cloudy,0,2013-02-15 23:53:00
6:53 PM,33.1,26.1,75,30.12,10.0,Calm,Calm,-,N/A,,Clear,0,2013-02-16 00:53:00
7:53 PM,35.1,26.1,70,30.11,10.0,Calm,Calm,-,N/A,,Overcast,0,2013-02-16 01:53:00
8:53 PM,36.0,25.0,64,30.11,10.0,North,5.8,-,N/A,,Scattered Clouds,350,2013-02-16 02:53:00
9:53 PM,35.1,25.0,67,30.10,10.0,North,8.1,-,N/A,,Partly Cloudy,350,2013-02-16 03:53:00
10:53 PM,33.1,23.0,66,30.10,10.0,North,8.1,-,N/A,,Mostly Cloudy,360,2013-02-16 04:53:00
11:53 PM,30.9,21.0,67,30.09,10.0,North,5.8,-,N/A,,Overcast,350,2013-02-16 05:53:00